STARLINK-1280 (45388 NORAD) Tracking and Keplerian Element Data

This shows tracking and keplerian element data for the satellite.

Feedback or suggestion? Click here.




ElementValue
Catalog45388
NameSTARLINK-1280
Epoch Orbit1727
Epoch Day187.50002315
Epoch Year2020
RAAN112.7864
Inclination53.0008
Eccentricity0.000152
Argument of Perigee88.8418
Mean Anonmoly57.648
Mean Motion14.9908678
Decay Rate-0.00027
L11 45388U 20019AE 20187.50002315 -.00027000 00000-0 -21875-2 0 9990
L22 45388 53.0008 112.7864 0001520 88.8418 57.6480 14.99086780 17279

Live tracking and technical data element details for STARLINK-1280 (NORAD 45388). STARLINK-1280 can be tracked NOW for your location showing map with azimuth and elevation plus other details from your city location.

Track the satellite on the map from your city or location and see movement details for azimuth, elevation, latitude, longitude, range, height, and movement on the map or in text.







IsCatalogInMostPopularTable: catalog: 45388, numindb: 24
Update: records affected: 1



GetName: 45388 STARLINK-1280

Hit Count: updated at: Mon, 06 Jul 2020 05:21:27 GMT